BAW191 UMMS-ESMS

Flight info

Callsign BAW191
Flight time 1h 37m
Altitude 38000
Route OSMUS2F OSMUS L33 SOGBI/N0470F380 DCT ITVUL DCT PENOR DCT EKRAL
Aircraft B77W/H-SDE1E2E3FGHIJ2J3J4J5M1RWXY/LB1D1

Departure

Time 2026-05-08 08:27
Airport Minsk National Airport (UMMS)

Arrival

Time 2026-05-08 10:04
Airport Malmö Sturup Airport (ESMS)
Time Latitude Longitude Altitude Speed Heading
2026-05-08 08:13 53.88869 28.03511 641 ft 0 kts 332°
2026-05-08 08:15 53.88868 28.03512 643 ft 3 kts 332°
2026-05-08 08:15 53.88851 28.03527 643 ft 3 kts 332°
2026-05-08 08:16 53.88835 28.03542 642 ft 3 kts 332°
2026-05-08 08:16 53.88819 28.03557 642 ft 3 kts 332°
2026-05-08 08:16 53.88802 28.03571 641 ft 3 kts 332°
2026-05-08 08:16 53.88787 28.03585 643 ft 3 kts 332°
2026-05-08 08:17 53.88776 28.03595 642 ft 0 kts 332°
2026-05-08 08:18 53.88781 28.03586 648 ft 4 kts 320°
2026-05-08 08:19 53.88786 28.03513 647 ft 10 kts 246°
2026-05-08 08:19 53.88725 28.03381 644 ft 19 kts 225°
2026-05-08 08:19 53.88669 28.03291 645 ft 7 kts 198°
2026-05-08 08:19 53.88628 28.03328 643 ft 8 kts 139°
2026-05-08 08:20 53.88583 28.03393 648 ft 9 kts 139°
2026-05-08 08:20 53.88528 28.03466 645 ft 11 kts 153°
2026-05-08 08:20 53.88462 28.03431 644 ft 12 kts 227°
2026-05-08 08:20 53.88405 28.03321 648 ft 13 kts 229°
2026-05-08 08:21 53.88345 28.03202 648 ft 10 kts 229°
2026-05-08 08:21 53.88294 28.03105 643 ft 12 kts 228°
2026-05-08 08:21 53.88223 28.03096 647 ft 12 kts 135°
2026-05-08 08:21 53.88160 28.03196 650 ft 13 kts 139°
2026-05-08 08:22 53.88089 28.03301 646 ft 15 kts 139°
2026-05-08 08:22 53.88005 28.03426 645 ft 17 kts 139°
2026-05-08 08:22 53.87910 28.03568 647 ft 20 kts 138°
2026-05-08 08:22 53.87805 28.03725 647 ft 20 kts 139°
2026-05-08 08:23 53.87695 28.03888 646 ft 21 kts 139°
2026-05-08 08:23 53.87582 28.04056 646 ft 23 kts 139°
2026-05-08 08:23 53.87461 28.04235 644 ft 24 kts 139°
2026-05-08 08:23 53.87327 28.04431 644 ft 26 kts 139°
2026-05-08 08:24 53.87186 28.04640 645 ft 27 kts 139°
2026-05-08 08:24 53.87035 28.04816 645 ft 13 kts 151°
2026-05-08 08:24 53.87031 28.04836 647 ft 2 kts 97°
2026-05-08 08:24 53.87038 28.04852 645 ft 2 kts 43°
2026-05-08 08:25 53.87051 28.04850 645 ft 2 kts 342°
2026-05-08 08:25 53.87060 28.04828 646 ft 3 kts 303°
2026-05-08 08:25 53.87087 28.04787 647 ft 7 kts 323°
2026-05-08 08:25 53.87110 28.04755 645 ft 2 kts 319°
2026-05-08 08:26 53.87116 28.04746 647 ft 0 kts 319°
2026-05-08 08:26 53.87128 28.04728 646 ft 22 kts 319°
2026-05-08 08:26 53.87483 28.04201 645 ft 110 kts 319°
2026-05-08 08:26 53.88248 28.03109 653 ft 176 kts 326°
2026-05-08 08:27 53.89235 28.01837 1409 ft 175 kts 327°
2026-05-08 08:27 53.90219 28.00637 2533 ft 179 kts 333°
2026-05-08 08:27 53.91333 27.99322 3433 ft 207 kts 330°
2026-05-08 08:27 53.92543 27.98009 4844 ft 199 kts 331°
2026-05-08 08:28 53.93723 27.96849 5909 ft 202 kts 330°
2026-05-08 08:28 53.94980 27.95679 6683 ft 206 kts 333°
2026-05-08 08:28 53.96253 27.94615 7500 ft 202 kts 335°
2026-05-08 08:28 53.97518 27.93580 8170 ft 206 kts 330°
2026-05-08 08:29 53.98736 27.92170 8667 ft 217 kts 320°
2026-05-08 08:29 53.99829 27.90372 9291 ft 219 kts 310°
2026-05-08 08:29 54.00758 27.88377 9987 ft 216 kts 308°
2026-05-08 08:29 54.01702 27.86372 10570 ft 218 kts 309°
2026-05-08 08:30 54.02778 27.84216 10341 ft 263 kts 310°
2026-05-08 08:30 54.04055 27.81705 10371 ft 288 kts 310°
2026-05-08 08:30 54.06674 27.76510 11385 ft 299 kts 309°
2026-05-08 08:31 54.07836 27.73484 11902 ft 313 kts 288°
2026-05-08 08:31 54.08101 27.69810 12644 ft 323 kts 261°
2026-05-08 08:31 54.07537 27.66053 13386 ft 332 kts 251°
2026-05-08 08:31 54.06804 27.62205 14079 ft 347 kts 250°
2026-05-08 08:32 54.06038 27.58280 14723 ft 359 kts 250°
2026-05-08 08:32 54.05250 27.54234 15348 ft 357 kts 250°
2026-05-08 08:32 54.04474 27.50213 15993 ft 366 kts 250°
2026-05-08 08:32 54.03674 27.46051 16671 ft 369 kts 250°
2026-05-08 08:33 54.02878 27.41878 17337 ft 367 kts 251°
2026-05-08 08:33 54.02080 27.37683 18046 ft 377 kts 250°
2026-05-08 08:33 54.01275 27.33449 18697 ft 382 kts 250°
2026-05-08 08:33 54.00455 27.29133 19320 ft 385 kts 250°
2026-05-08 08:34 53.99623 27.24765 19968 ft 390 kts 250°
2026-05-08 08:34 53.98785 27.20374 20607 ft 394 kts 250°
2026-05-08 08:34 53.97929 27.15903 21265 ft 400 kts 250°
2026-05-08 08:34 53.97059 27.11364 21965 ft 406 kts 250°
2026-05-08 08:35 53.96179 27.06785 22654 ft 409 kts 250°
2026-05-08 08:35 53.95301 27.02223 23367 ft 411 kts 249°
2026-05-08 08:35 53.94408 26.97595 24008 ft 413 kts 249°
2026-05-08 08:35 53.93512 26.92972 24620 ft 415 kts 249°
2026-05-08 08:36 53.92602 26.88271 25250 ft 417 kts 249°
2026-05-08 08:36 53.91691 26.83567 25895 ft 419 kts 249°
2026-05-08 08:36 53.90778 26.78864 26546 ft 421 kts 249°
2026-05-08 08:36 53.90110 26.74084 27178 ft 425 kts 261°
2026-05-08 08:37 53.90210 26.69003 27890 ft 436 kts 276°
2026-05-08 08:37 53.91077 26.64106 28581 ft 441 kts 285°
2026-05-08 08:37 53.92171 26.59218 29331 ft 443 kts 285°
2026-05-08 08:37 53.93275 26.54313 30064 ft 444 kts 285°
2026-05-08 08:38 53.94369 26.49403 30706 ft 444 kts 285°
2026-05-08 08:38 53.95446 26.44500 31356 ft 443 kts 285°
2026-05-08 08:38 53.96511 26.39578 32017 ft 442 kts 285°
2026-05-08 08:38 53.97550 26.34727 32690 ft 440 kts 284°
2026-05-08 08:39 53.98595 26.29809 33401 ft 437 kts 284°
2026-05-08 08:39 53.99612 26.25004 34081 ft 434 kts 284°
2026-05-08 08:39 54.00629 26.20186 34685 ft 431 kts 284°
2026-05-08 08:39 54.01638 26.15389 35304 ft 427 kts 284°
2026-05-08 08:40 54.02637 26.10635 35935 ft 423 kts 284°
2026-05-08 08:40 54.03616 26.05962 36580 ft 418 kts 284°
2026-05-08 08:40 54.04576 26.01369 37231 ft 412 kts 285°
2026-05-08 08:40 54.05530 25.96798 37875 ft 406 kts 285°
2026-05-08 08:41 54.06469 25.92277 38061 ft 413 kts 285°
2026-05-08 08:41 54.07436 25.87598 38063 ft 422 kts 285°
2026-05-08 08:41 54.09425 25.77950 38068 ft 440 kts 285°
2026-05-08 08:42 54.11495 25.67889 38065 ft 457 kts 285°
2026-05-08 08:42 54.13614 25.57554 38068 ft 470 kts 285°
2026-05-08 08:43 54.15775 25.46968 38062 ft 474 kts 285°
2026-05-08 08:43 54.17941 25.36291 38052 ft 476 kts 285°
2026-05-08 08:44 54.20095 25.25614 38055 ft 476 kts 285°
2026-05-08 08:44 54.22040 25.16775 38058 ft 479 kts 291°
2026-05-08 08:45 54.25448 25.04831 38064 ft 479 kts 292°
2026-05-08 08:45 54.28403 24.94671 38065 ft 478 kts 292°
2026-05-08 08:46 54.30844 24.86163 38062 ft 477 kts 292°
2026-05-08 08:46 54.33747 24.75920 38064 ft 476 kts 292°
2026-05-08 08:47 54.36616 24.65721 38075 ft 476 kts 291°
2026-05-08 08:47 54.39486 24.55473 38081 ft 475 kts 291°
2026-05-08 08:48 54.42326 24.45292 38088 ft 475 kts 291°
2026-05-08 08:48 54.45177 24.35030 38087 ft 475 kts 291°
2026-05-08 08:49 54.48024 24.24736 38094 ft 476 kts 291°
2026-05-08 08:49 54.50850 24.14473 38109 ft 476 kts 291°
2026-05-08 08:50 54.53147 24.06096 38105 ft 477 kts 291°
2026-05-08 08:50 54.55709 23.96718 38123 ft 477 kts 291°
2026-05-08 08:51 54.58524 23.86370 38119 ft 478 kts 291°
2026-05-08 08:51 54.61345 23.75953 38120 ft 478 kts 291°
2026-05-08 08:52 54.64147 23.65559 38126 ft 478 kts 291°
2026-05-08 08:52 54.66953 23.55100 38131 ft 478 kts 291°
2026-05-08 08:53 54.69729 23.44706 38135 ft 478 kts 291°
2026-05-08 08:53 54.72520 23.34208 38140 ft 479 kts 291°
2026-05-08 08:54 54.75281 23.23775 38139 ft 479 kts 290°
2026-05-08 08:54 54.78044 23.13288 38145 ft 479 kts 290°
2026-05-08 08:55 54.80808 23.02748 38152 ft 479 kts 290°
2026-05-08 08:55 54.83540 22.92279 38140 ft 479 kts 290°
2026-05-08 08:56 54.86286 22.81706 38156 ft 479 kts 290°
2026-05-08 08:56 54.89002 22.71203 38159 ft 479 kts 290°
2026-05-08 08:57 54.91716 22.60652 38161 ft 479 kts 290°
2026-05-08 08:57 54.94431 22.50052 38161 ft 479 kts 290°
2026-05-08 08:58 54.97122 22.39497 38166 ft 479 kts 290°
2026-05-08 08:58 54.99822 22.28853 38168 ft 479 kts 290°
2026-05-08 08:59 55.02494 22.18269 38174 ft 479 kts 290°
2026-05-08 08:59 55.05172 22.07612 38168 ft 479 kts 290°
2026-05-08 09:00 55.07825 21.97001 38179 ft 479 kts 290°
2026-05-08 09:00 55.10490 21.86296 38178 ft 479 kts 290°
2026-05-08 09:01 55.13127 21.75640 38189 ft 478 kts 289°
2026-05-08 09:01 55.15113 21.64650 38194 ft 473 kts 279°
2026-05-08 09:02 55.16518 21.53436 38195 ft 474 kts 279°
2026-05-08 09:02 55.17897 21.42184 38199 ft 475 kts 279°
2026-05-08 09:03 55.19307 21.30853 38202 ft 475 kts 279°
2026-05-08 09:03 55.20718 21.19574 38203 ft 476 kts 279°
2026-05-08 09:04 55.22136 21.08185 38207 ft 477 kts 279°
2026-05-08 09:04 55.23532 20.96868 38211 ft 477 kts 279°
2026-05-08 09:05 55.24920 20.85521 38213 ft 478 kts 279°
2026-05-08 09:05 55.26306 20.74084 38214 ft 479 kts 279°
2026-05-08 09:06 55.27680 20.62656 38211 ft 480 kts 279°
2026-05-08 09:06 55.29051 20.51156 38211 ft 480 kts 279°
2026-05-08 09:07 55.30403 20.39714 38219 ft 481 kts 279°
2026-05-08 09:07 55.31754 20.28180 38222 ft 481 kts 279°
2026-05-08 09:08 55.33090 20.16674 38230 ft 482 kts 279°
2026-05-08 09:08 55.34420 20.05122 38235 ft 482 kts 279°
2026-05-08 09:09 55.35734 19.93607 38243 ft 482 kts 279°
2026-05-08 09:09 55.37040 19.82061 38243 ft 482 kts 279°
2026-05-08 09:10 55.38340 19.70460 38252 ft 482 kts 279°
2026-05-08 09:10 55.39620 19.58934 38250 ft 482 kts 279°
2026-05-08 09:11 55.40896 19.47332 38251 ft 482 kts 279°
2026-05-08 09:11 55.42159 19.35751 38254 ft 482 kts 279°
2026-05-08 09:12 55.43413 19.24141 38256 ft 482 kts 278°
2026-05-08 09:12 55.44651 19.12568 38261 ft 482 kts 278°
2026-05-08 09:13 55.45884 19.00925 38260 ft 482 kts 278°
2026-05-08 09:13 55.47102 18.89323 38268 ft 482 kts 278°
2026-05-08 09:14 55.48315 18.77654 38262 ft 483 kts 278°
2026-05-08 09:14 55.49506 18.66090 38264 ft 483 kts 278°
2026-05-08 09:15 55.50697 18.54402 38271 ft 483 kts 278°
2026-05-08 09:15 55.51875 18.42728 38272 ft 483 kts 278°
2026-05-08 09:16 55.53039 18.31081 38269 ft 483 kts 278°
2026-05-08 09:16 55.54198 18.19368 38278 ft 483 kts 278°
2026-05-08 09:17 55.55340 18.07697 38271 ft 483 kts 278°
2026-05-08 09:17 55.56472 17.96014 38274 ft 483 kts 278°
2026-05-08 09:18 55.57595 17.84299 38278 ft 483 kts 278°
2026-05-08 09:18 55.58709 17.72553 38274 ft 483 kts 278°
2026-05-08 09:19 55.59805 17.60874 38270 ft 483 kts 277°
2026-05-08 09:19 55.60898 17.49113 38276 ft 483 kts 277°
2026-05-08 09:20 55.61974 17.37401 38283 ft 483 kts 277°
2026-05-08 09:20 55.63045 17.25622 38289 ft 483 kts 277°
2026-05-08 09:21 55.64059 17.13885 38280 ft 483 kts 275°
2026-05-08 09:23 55.66271 16.72538 38287 ft 482 kts 274°
2026-05-08 09:23 55.66889 16.60704 38275 ft 482 kts 274°
2026-05-08 09:23 55.67193 16.54801 37869 ft 488 kts 274°
2026-05-08 09:24 55.67501 16.48765 37175 ft 492 kts 274°
2026-05-08 09:24 55.67808 16.42721 36524 ft 490 kts 274°
2026-05-08 09:24 55.68109 16.36710 35891 ft 487 kts 274°
2026-05-08 09:24 55.68403 16.30774 35273 ft 485 kts 274°
2026-05-08 09:25 55.68695 16.24809 34653 ft 483 kts 274°
2026-05-08 09:25 55.68980 16.18943 34033 ft 486 kts 275°
2026-05-08 09:25 55.69269 16.12914 33340 ft 491 kts 275°
2026-05-08 09:25 55.69556 16.06870 32648 ft 490 kts 275°
2026-05-08 09:26 55.69839 16.00858 31976 ft 490 kts 275°
2026-05-08 09:26 55.70122 15.94792 31326 ft 494 kts 275°
2026-05-08 09:26 55.70400 15.88777 30696 ft 494 kts 275°
2026-05-08 09:26 55.70677 15.82683 29998 ft 490 kts 275°
2026-05-08 09:27 55.70945 15.76742 29259 ft 485 kts 275°
2026-05-08 09:27 55.71211 15.70780 28540 ft 481 kts 275°
2026-05-08 09:27 55.71471 15.64881 27827 ft 475 kts 275°
2026-05-08 09:27 55.71722 15.59113 27143 ft 470 kts 275°
2026-05-08 09:28 55.71972 15.53329 26464 ft 465 kts 275°
2026-05-08 09:28 55.72213 15.47677 25811 ft 461 kts 275°
2026-05-08 09:28 55.72451 15.42042 25169 ft 457 kts 275°
2026-05-08 09:28 55.72685 15.36425 24539 ft 453 kts 274°
2026-05-08 09:29 55.72915 15.30866 23925 ft 449 kts 274°
2026-05-08 09:29 55.73139 15.25375 23201 ft 445 kts 274°
2026-05-08 09:29 55.73286 15.21740 22734 ft 442 kts 274°
2026-05-08 09:29 55.73502 15.16362 22046 ft 438 kts 274°
2026-05-08 09:30 55.73715 15.10991 21364 ft 435 kts 274°
2026-05-08 09:30 55.73925 15.05636 20698 ft 431 kts 274°
2026-05-08 09:30 55.74130 15.00345 20041 ft 428 kts 274°
2026-05-08 09:30 55.74332 14.95074 19402 ft 425 kts 274°
2026-05-08 09:31 55.74528 14.89904 18783 ft 421 kts 274°
2026-05-08 09:31 55.74723 14.84704 18095 ft 418 kts 274°
2026-05-08 09:31 55.74913 14.79583 17397 ft 415 kts 274°
2026-05-08 09:31 55.75097 14.74540 16719 ft 412 kts 274°
2026-05-08 09:32 55.75282 14.69447 16042 ft 410 kts 274°
2026-05-08 09:32 55.75462 14.64411 15392 ft 407 kts 274°
2026-05-08 09:32 55.75639 14.59408 14750 ft 405 kts 274°
2026-05-08 09:32 55.75811 14.54494 14125 ft 402 kts 274°
2026-05-08 09:33 55.75983 14.49542 13430 ft 400 kts 274°
2026-05-08 09:33 55.76152 14.44608 12732 ft 397 kts 274°
2026-05-08 09:33 55.76317 14.39716 12054 ft 395 kts 273°
2026-05-08 09:33 55.76480 14.34845 11398 ft 393 kts 273°
2026-05-08 09:34 55.76637 14.30088 10894 ft 387 kts 273°
2026-05-08 09:34 55.76792 14.25335 10437 ft 380 kts 273°
2026-05-08 09:34 55.76941 14.20715 9980 ft 374 kts 273°
2026-05-08 09:34 55.77006 14.18658 9766 ft 372 kts 273°
2026-05-08 09:35 55.77023 14.18130 9710 ft 371 kts 273°
2026-05-08 09:35 55.77166 14.13558 9259 ft 367 kts 273°
2026-05-08 09:35 55.77310 14.09048 8780 ft 365 kts 273°
2026-05-08 09:35 55.77450 14.04605 8316 ft 364 kts 273°
2026-05-08 09:36 55.77586 14.00107 7887 ft 362 kts 273°
2026-05-08 09:36 55.77711 13.95666 7487 ft 358 kts 272°
2026-05-08 09:36 55.77704 13.91190 7309 ft 363 kts 268°
2026-05-08 09:36 55.77622 13.86726 7280 ft 358 kts 268°
2026-05-08 09:37 55.77528 13.82352 7275 ft 356 kts 268°
2026-05-08 09:37 55.77434 13.78042 7283 ft 342 kts 268°
2026-05-08 09:37 55.77353 13.73900 7280 ft 326 kts 268°
2026-05-08 09:37 55.77283 13.69947 7270 ft 312 kts 268°
2026-05-08 09:38 55.77217 13.66217 7259 ft 298 kts 268°
2026-05-08 09:38 55.77156 13.62631 7265 ft 284 kts 268°
2026-05-08 09:38 55.77097 13.59180 7255 ft 272 kts 268°
2026-05-08 09:38 55.77038 13.55899 7237 ft 259 kts 268°
2026-05-08 09:39 55.76981 13.52815 7263 ft 245 kts 268°
2026-05-08 09:39 55.76928 13.49864 7253 ft 233 kts 268°
2026-05-08 09:39 55.76873 13.47079 7236 ft 217 kts 268°
2026-05-08 09:39 55.76820 13.44366 7292 ft 222 kts 268°
2026-05-08 09:40 55.76768 13.41650 7271 ft 218 kts 268°
2026-05-08 09:40 55.76535 13.39052 7232 ft 209 kts 240°
2026-05-08 09:40 55.75577 13.37254 7280 ft 205 kts 207°
2026-05-08 09:40 55.74270 13.36116 7291 ft 213 kts 200°
2026-05-08 09:41 55.72908 13.35080 7265 ft 210 kts 200°
2026-05-08 09:41 55.71574 13.34318 7256 ft 198 kts 179°
2026-05-08 09:41 55.70208 13.34361 7283 ft 198 kts 174°
2026-05-08 09:41 55.68806 13.34466 7273 ft 202 kts 170°
2026-05-08 09:42 55.67415 13.34755 7279 ft 201 kts 169°
2026-05-08 09:42 55.66019 13.35053 7278 ft 203 kts 169°
2026-05-08 09:42 55.64613 13.35348 7265 ft 201 kts 169°
2026-05-08 09:42 55.63229 13.35638 7261 ft 199 kts 169°
2026-05-08 09:43 55.61873 13.35919 7261 ft 198 kts 169°
2026-05-08 09:43 55.60500 13.36202 7255 ft 195 kts 169°
2026-05-08 09:43 55.59151 13.36480 7271 ft 195 kts 169°
2026-05-08 09:43 55.57805 13.36763 7277 ft 198 kts 169°
2026-05-08 09:44 55.56394 13.37047 7282 ft 203 kts 169°
2026-05-08 09:44 55.54984 13.37325 7272 ft 201 kts 169°
2026-05-08 09:44 55.53613 13.37579 7260 ft 198 kts 169°
2026-05-08 09:44 55.52318 13.38198 7276 ft 191 kts 153°
2026-05-08 09:45 55.51098 13.39187 7265 ft 194 kts 150°
2026-05-08 09:45 55.49811 13.39899 7256 ft 198 kts 176°
2026-05-08 09:45 55.48500 13.39160 7269 ft 205 kts 214°
2026-05-08 09:45 55.47651 13.37084 7256 ft 216 kts 252°
2026-05-08 09:46 55.47620 13.34501 7276 ft 217 kts 288°
2026-05-08 09:46 55.48416 13.32319 7267 ft 210 kts 325°
2026-05-08 09:46 55.49716 13.31385 7263 ft 198 kts 358°
2026-05-08 09:46 55.51089 13.31300 7276 ft 197 kts
2026-05-08 09:47 55.52477 13.31313 7280 ft 202 kts
2026-05-08 09:47 55.53884 13.31344 7266 ft 200 kts
2026-05-08 09:47 55.55260 13.31374 7258 ft 199 kts
2026-05-08 09:47 55.56656 13.31410 7276 ft 202 kts
2026-05-08 09:48 55.58067 13.31453 7265 ft 200 kts
2026-05-08 09:48 55.59450 13.31488 7231 ft 198 kts
2026-05-08 09:48 55.60849 13.31530 7006 ft 203 kts
2026-05-08 09:48 55.62273 13.31574 6653 ft 209 kts
2026-05-08 09:49 55.63746 13.31617 6261 ft 213 kts
2026-05-08 09:49 55.65236 13.31669 5888 ft 215 kts
2026-05-08 09:49 55.66745 13.31729 5512 ft 218 kts
2026-05-08 09:49 55.68283 13.31788 5130 ft 222 kts
2026-05-08 09:50 55.69826 13.31844 4767 ft 226 kts
2026-05-08 09:50 55.70800 13.31893 4519 ft 228 kts
2026-05-08 09:50 55.71994 13.31958 4251 ft 231 kts
2026-05-08 09:50 55.73579 13.32189 3859 ft 228 kts 17°
2026-05-08 09:51 55.74958 13.33491 3441 ft 224 kts 41°
2026-05-08 09:51 55.76138 13.35317 3096 ft 226 kts 45°
2026-05-08 09:51 55.77304 13.37228 2787 ft 228 kts 46°
2026-05-08 09:51 55.78446 13.39083 2768 ft 216 kts 45°
2026-05-08 09:52 55.79537 13.40847 2771 ft 205 kts 45°
2026-05-08 09:52 55.80558 13.42498 2786 ft 190 kts 45°
2026-05-08 09:52 55.81504 13.44025 2696 ft 185 kts 45°
2026-05-08 09:52 55.82468 13.45578 2602 ft 186 kts 45°
2026-05-08 09:53 55.83438 13.47129 2596 ft 191 kts 45°
2026-05-08 09:53 55.84210 13.48979 2552 ft 184 kts 73°
2026-05-08 09:53 55.84759 13.51003 2507 ft 187 kts 49°
2026-05-08 09:53 55.85892 13.52076 2508 ft 185 kts 10°
2026-05-08 09:54 55.87097 13.51578 2500 ft 180 kts 327°
2026-05-08 09:54 55.87758 13.49794 2501 ft 174 kts 279°
2026-05-08 09:54 55.87654 13.47682 2560 ft 173 kts 258°
2026-05-08 09:54 55.87456 13.45495 2510 ft 181 kts 253°
2026-05-08 09:55 55.86758 13.43745 2525 ft 174 kts 203°
2026-05-08 09:55 55.85621 13.43408 2517 ft 164 kts 178°
2026-05-08 09:55 55.84498 13.43058 2521 ft 163 kts 190°
2026-05-08 09:55 55.83446 13.42568 2511 ft 151 kts 189°
2026-05-08 09:56 55.82418 13.42083 2519 ft 151 kts 190°
2026-05-08 09:56 55.81452 13.41636 2512 ft 145 kts 191°
2026-05-08 09:56 55.80448 13.41175 2529 ft 151 kts 188°
2026-05-08 09:56 55.79444 13.40731 2518 ft 145 kts 190°
2026-05-08 09:57 55.77437 13.39814 2495 ft 147 kts 187°
2026-05-08 09:57 55.76444 13.39384 2505 ft 148 kts 189°
2026-05-08 09:57 55.75444 13.38939 2493 ft 145 kts 188°
2026-05-08 09:58 55.74452 13.38506 2497 ft 150 kts 187°
2026-05-08 09:58 55.73456 13.38046 2555 ft 152 kts 189°
2026-05-08 09:58 55.72425 13.37621 2541 ft 148 kts 188°
2026-05-08 09:58 55.71417 13.37152 2488 ft 146 kts 190°
2026-05-08 09:59 55.70429 13.36862 2545 ft 147 kts 187°
2026-05-08 09:59 55.69409 13.36318 2491 ft 152 kts 187°
2026-05-08 09:59 55.68393 13.35896 2500 ft 148 kts 189°
2026-05-08 09:59 55.67400 13.35444 2508 ft 149 kts 186°
2026-05-08 10:00 55.66362 13.35253 2543 ft 152 kts 174°
2026-05-08 10:00 55.65284 13.35285 2325 ft 150 kts 172°
2026-05-08 10:00 55.64284 13.35430 2144 ft 140 kts 169°
2026-05-08 10:00 55.63331 13.35622 1972 ft 140 kts 169°
2026-05-08 10:01 55.62365 13.35816 1774 ft 138 kts 168°
2026-05-08 10:01 55.61400 13.36015 1596 ft 142 kts 168°
2026-05-08 10:01 55.60405 13.36220 1399 ft 144 kts 168°
2026-05-08 10:01 55.59416 13.36425 1191 ft 141 kts 169°
2026-05-08 10:02 55.58445 13.36628 980 ft 141 kts 169°
2026-05-08 10:02 55.58145 13.36692 941 ft 139 kts 168°
2026-05-08 10:02 55.57188 13.36885 731 ft 135 kts 168°
2026-05-08 10:03 55.56268 13.37080 558 ft 135 kts 168°
2026-05-08 10:03 55.55322 13.37270 381 ft 139 kts 169°
2026-05-08 10:03 55.54347 13.37458 276 ft 139 kts 169°
2026-05-08 10:03 55.53427 13.37687 243 ft 120 kts 174°
2026-05-08 10:04 55.52805 13.37795 244 ft 60 kts 173°
2026-05-08 10:04 55.52472 13.37863 244 ft 50 kts 173°
2026-05-08 10:04 55.52339 13.37865 243 ft 3 kts 215°
2026-05-08 10:04 55.52331 13.37751 238 ft 17 kts 302°
2026-05-08 10:05 55.52458 13.37580 236 ft 28 kts 336°
2026-05-08 10:05 55.52596 13.37538 236 ft 33 kts 354°
2026-05-08 10:05 55.52845 13.37488 236 ft 39 kts 353°
2026-05-08 10:05 55.53138 13.37427 236 ft 45 kts 353°
2026-05-08 10:06 55.53467 13.37363 236 ft 49 kts 354°
2026-05-08 10:06 55.53807 13.37291 236 ft 37 kts 353°
2026-05-08 10:06 55.53966 13.37226 236 ft 9 kts 300°
2026-05-08 10:06 55.53958 13.37097 237 ft 14 kts 261°
2026-05-08 10:07 55.53945 13.36927 239 ft 0 kts 263°
2026-05-08 10:07 55.53949 13.36904 240 ft 3 kts 298°
2026-05-08 10:07 55.53980 13.36883 238 ft 5 kts 354°
2026-05-08 10:07 55.54006 13.36879 240 ft 0 kts 354°